This demonstration page uses our WeatherBlox Daily Observations layout. Learn more.

Left ArrowRight Arrow

53.62937, 11.41316

Hourly Observations for January 23, 2019

Temp ( °F °C ) Dew Point ( °F °C ) Humidity (%) Winds ( mph kmh ) Pressure ( in mb ) Visibility ( mi km ) Precip ( " mm )
6:50 am 06:50 Mostly Clear 21 -6 19 -7 93 93 SE 7 11 29.62 1003 5 8 N/A
7:20 am 07:20 Mostly Clear 21 -6 18 -8 86 86 ESE 6 9 29.62 1003 5 8 N/A
7:50 am 07:50 Mostly Clear 21 -6 18 -8 86 86 E 5 7 29.62 1003 4 7 N/A
8:20 am 08:20 Mostly Sunny 19 -7 18 -8 93 93 E 5 7 29.65 1004 4 7 N/A
8:50 am 08:50 Mostly Sunny 21 -6 18 -8 86 86 E 6 9 29.65 1004 4 6 N/A
9:20 am 09:20 Partly Cloudy 21 -6 18 -8 86 86 ESE 6 9 29.65 1004 4 6 N/A
9:50 am 09:50 Mostly Cloudy 21 -6 18 -8 86 86 ESE 7 11 29.65 1004 4 6 N/A
10:20 am 10:20 Mostly Cloudy 21 -6 18 -8 86 86 ESE 7 11 29.65 1004 4 6 N/A
10:50 am 10:50 Mostly Cloudy 21 -6 18 -8 86 86 ESE 9 15 29.65 1004 4 6 N/A
11:20 am 11:20 Mostly Cloudy 23 -5 19 -7 86 86 ESE 7 11 29.65 1004 4 7 N/A
11:50 am 11:50 Mostly Cloudy 23 -5 19 -7 86 86 SE 6 9 29.65 1004 4 7 N/A
12:20 pm 12:20 Mostly Cloudy 23 -5 19 -7 86 86 ESE 7 11 29.65 1004 4 6 N/A
12:50 pm 12:50 Mostly Cloudy 23 -5 19 -7 86 86 E 7 11 29.65 1004 4 7 N/A
1:20 pm 13:20 Mostly Cloudy 25 -4 19 -7 80 80 ESE 5 7 29.65 1004 4 7 N/A
1:50 pm 13:50 Mostly Sunny 23 -5 19 -7 86 86 E 7 11 29.65 1004 4 7 N/A
2:20 pm 14:20 Mostly Sunny 23 -5 19 -7 86 86 E 7 11 29.65 1004 4 7 N/A
2:50 pm 14:50 Mostly Sunny 25 -4 19 -7 80 80 E 5 7 29.65 1004 5 8 N/A
3:20 pm 15:20 Mostly Sunny 25 -4 19 -7 80 80 E 2 4 29.65 1004 4 7 N/A
3:50 pm 15:50 Mostly Sunny 23 -5 19 -7 86 86 ENE 2 4 29.65 1004 4 7 N/A
4:20 pm 16:20 Mostly Sunny 23 -5 19 -7 86 86 NE 2 4 29.68 1005 4 7 N/A
4:50 pm 16:50 Mostly Clear 23 -5 19 -7 86 86 N 1 2 29.68 1005 4 6 N/A
5:20 pm 17:20 Mostly Clear 21 -6 19 -7 93 93 NNE 2 4 29.68 1005 4 6 N/A
5:50 pm 17:50 Mostly Clear 21 -6 19 -7 93 93 ENE 2 4 29.68 1005 4 6 N/A
6:20 pm 18:20 Mostly Clear 23 -5 19 -7 86 86 VRB 2 4 29.71 1006 4 6 N/A
6:50 pm 18:50 Mostly Clear 23 -5 19 -7 86 86 E 5 7 29.71 1006 3 5 N/A

Powered by AerisWeather